Flag for U.S.A. Weather past 2 weeks in Hampton, Virginia, U.S.A.

Now
78 °F

Sunny.


Feels Like: 79 °F
Forecast: 64 / 78 °F
Wind: 8 mph from Southeast

Location: Langley Air Force Base

Current Time: May 6, 2015 at 4:40:26 PM

Latest Report: May 6, 2015 at 3:58 PM


Visibility: 10 mi

Pressure: 30.17 "Hg

Humidity: 55%

Dew point: 60 °F

Location of HamptonLocation

Historic Weather in Hampton — Graph

°F

Hampton temperature yesterday

Maximum temperature yesterday: 82 °F (at 4:58 PM)
Minimum temperature yesterday: 64 °F (at 5:58 AM)
Average temperature yesterday: 72 °F

Past Weeks' High & Low Weather Summary

 TemperatureHumidityPressure
High82 °F (May 5, 4:58 PM)100% (Apr 25, 11:03 PM)30.33 "Hg (Apr 25, 11:03 PM)
Low43 °F (Apr 27, 3:03 AM)22% (Apr 24, 5:58 PM)29.62 "Hg (Apr 26, 6:03 AM)
Average59 °F64%29.93 "Hg
* Reported Apr 21 2:58 PM — May 6 2:58 PM, Hampton, Weather by CustomWeather, © 2015

Note: Actual official high and low records may vary slightly from our data, if they occured in-between our weather recording intervals... More about our weather records

Advertising

Hampton weather history for previous 24 hours

 ConditionsComfort  
Time TempWeatherWind HumidityBarometerVisibility
2:58 PM
Wed, May 6
80 °FPassing clouds.7 mph51%30.19 "Hg10 mi
1:58 PM79 °FSunny.7 mph47%30.20 "Hg9 mi
12:58 PM78 °FScattered clouds.7 mph49%30.23 "Hg9 mi
11:58 AM76 °FPassing clouds.7 mph46%30.24 "Hg9 mi
10:58 AM73 °FScattered clouds.8 mph53%30.25 "Hg7 mi
9:58 AM70 °FSunny.8 mph62%30.25 "Hg10 mi
8:58 AM67 °FSunny.8 mph65%30.26 "Hg10 mi
7:58 AM65 °FSunny.10 mph68%30.26 "Hg10 mi
6:58 AM62 °FClear.6 mph73%30.26 "Hg10 mi
5:58 AM62 °FClear.6 mph74%30.25 "Hg10 mi
4:58 AM60 °FClear.5 mph75%30.25 "Hg10 mi
3:58 AM63 °FClear.7 mph69%30.25 "Hg10 mi
2:58 AM63 °FClear.9 mph70%30.25 "Hg10 mi
1:58 AM65 °FClear.9 mph65%30.26 "Hg10 mi
12:58 AM66 °FClear.13 mph62%30.27 "Hg10 mi
11:58 PM
Tue, May 5
67 °FClear.12 mph59%30.29 "Hg10 mi
10:58 PM69 °FClear.13 mph55%30.29 "Hg10 mi
9:58 PM71 °FClear.13 mph51%30.29 "Hg10 mi
8:58 PM73 °FClear.12 mph49%30.25 "Hg10 mi
7:58 PM76 °FSunny.10 mph47%30.23 "Hg10 mi
6:58 PM79 °FSunny.14 mph45%30.22 "Hg10 mi
5:58 PM81 °FSunny.14 mph42%30.22 "Hg10 mi
4:58 PM82 °FSunny.15 mph43%30.23 "Hg10 mi
Weather by CustomWeather, © 2015

See weather overviewHow to use our weather pages